Hourly Weather Bolshoy Kozhvozh

Today, 1 August, Sunday

Time Temperature Precipitation Wind Pressure Humidity
00:00 +20°C° 0 mm 3 mps 746 mmHg 62%
01:00 +19°C° 0 mm 3 mps 746 mmHg 65%
02:00 +19°C° 0 mm 3 mps 747 mmHg 69%
03:00 +18°C° 0 mm 3 mps 747 mmHg 73%
04:00 +18°C° 0 mm 3 mps 747 mmHg 72%
05:00 +19°C° 0 mm 2 mps 748 mmHg 71%
06:00 +19°C° 0 mm 2 mps 748 mmHg 71%
07:00 +21°C° 0 mm 3 mps 748 mmHg 64%
08:00 +24°C° 0 mm 3 mps 749 mmHg 57%
09:00 +26°C° 0 mm 4 mps 749 mmHg 49%
10:00 +27°C° 0 mm 4 mps 749 mmHg 46%
11:00 +28°C° 0 mm 5 mps 749 mmHg 43%
12:00 +28°C° 0 mm 5 mps 749 mmHg 40%
13:00 +28°C° 0 mm 5 mps 749 mmHg 41%
14:00 +28°C° 0 mm 5 mps 749 mmHg 42%
15:00 +28°C° 0 mm 5 mps 750 mmHg 41%
16:00 +28°C° 0 mm 4 mps 750 mmHg 45%
17:00 +27°C° 0 mm 4 mps 750 mmHg 48%
18:00 +26°C° 0 mm 3 mps 750 mmHg 52%
19:00 +25°C° 0 mm 3 mps 750 mmHg 55%
20:00 +23°C° 0 mm 2 mps 750 mmHg 58%
21:00 +21°C° 0 mm 2 mps 750 mmHg 61%
22:00 +20°C° 0 mm 2 mps 750 mmHg 63%
23:00 +19°C° 0 mm 2 mps 750 mmHg 64%

Tomorrow, 2 August, Monday

Time Temperature Precipitation Wind Pressure Humidity
00:00 +19°C° 0 mm 2 mps 750 mmHg 66%
01:00 +18°C° 0 mm 2 mps 750 mmHg 67%
02:00 +18°C° 0 mm 2 mps 750 mmHg 68%
03:00 +18°C° 0 mm 2 mps 750 mmHg 69%
04:00 +19°C° 0 mm 2 mps 751 mmHg 68%
05:00 +20°C° 0 mm 2 mps 751 mmHg 67%
06:00 +21°C° 0 mm 2 mps 751 mmHg 66%
07:00 +23°C° 0 mm 2 mps 751 mmHg 63%
08:00 +24°C° 0 mm 2 mps 751 mmHg 60%
09:00 +26°C° 0 mm 2 mps 751 mmHg 57%
10:00 +27°C° 0 mm 2 mps 751 mmHg 53%
11:00 +29°C° 0 mm 3 mps 751 mmHg 49%
12:00 +30°C° 0 mm 3 mps 750 mmHg 44%
13:00 +32°C° 0 mm 4 mps 750 mmHg 43%
14:00 +33°C° 0 mm 4 mps 750 mmHg 41%
15:00 +33°C° 0 mm 4 mps 749 mmHg 39%
16:00 +33°C° 0 mm 3 mps 749 mmHg 43%
17:00 +31°C° 0 mm 3 mps 749 mmHg 46%
18:00 +30°C° 0 mm 2 mps 749 mmHg 50%
19:00 +29°C° 0 mm 2 mps 749 mmHg 53%
20:00 +27°C° 0 mm 2 mps 749 mmHg 56%
21:00 +26°C° 0 mm 2 mps 749 mmHg 58%
22:00 +25°C° 0 mm 2 mps 749 mmHg 61%
23:00 +24°C° 0 mm 2 mps 749 mmHg 64%

Day after tomorrow, 3 August, Tuesday

Time Temperature Precipitation Wind Pressure Humidity
00:00 +23°C° 0 mm 1 mps 749 mmHg 66%
01:00 +21°C° 0 mm 2 mps 749 mmHg 68%
02:00 +21°C° 0 mm 2 mps 749 mmHg 69%
03:00 +21°C° 0 mm 2 mps 748 mmHg 71%
04:00 +23°C° 0 mm 2 mps 748 mmHg 69%
05:00 +22°C° 0 mm 3 mps 748 mmHg 67%
06:00 +24°C° 0 mm 3 mps 748 mmHg 65%
07:00 +27°C° 0 mm 3 mps 748 mmHg 57%
08:00 +29°C° 0 mm 4 mps 748 mmHg 50%
09:00 +32°C° 0 mm 4 mps 748 mmHg 42%
10:00 +33°C° 0 mm 4 mps 748 mmHg 39%
11:00 +35°C° 0 mm 4 mps 747 mmHg 35%
12:00 +36°C° 0 mm 4 mps 747 mmHg 31%
13:00 +36°C° 0 mm 4 mps 747 mmHg 30%
14:00 +36°C° 0 mm 5 mps 747 mmHg 29%
15:00 +37°C° 0 mm 5 mps 746 mmHg 28%
16:00 +35°C° 0 mm 5 mps 746 mmHg 35%
17:00 +33°C° 0 mm 5 mps 746 mmHg 42%
18:00 +30°C° 0 mm 4 mps 746 mmHg 49%
19:00 +27°C° 0.1 mm 3 mps 747 mmHg 61%
20:00 +25°C° 0.1 mm 3 mps 747 mmHg 73%
21:00 +21°C° 0.1 mm 2 mps 748 mmHg 86%
22:00 +20°C° 0.3 mm 2 mps 748 mmHg 88%
23:00 +21°C° 0.3 mm 1 mps 748 mmHg 91%

4 August, Wednesday

Time Temperature Precipitation Wind Pressure Humidity
00:00 +20°C° 0.3 mm 1 mps 748 mmHg 93%
01:00 +20°C° 0.4 mm 1 mps 747 mmHg 94%
02:00 +19°C° 0.4 mm 2 mps 747 mmHg 95%
03:00 +19°C° 0.4 mm 2 mps 747 mmHg 96%
04:00 +19°C° 4.1 mm 2 mps 747 mmHg 96%
05:00 +19°C° 4.1 mm 2 mps 748 mmHg 95%
06:00 +20°C° 4.1 mm 2 mps 748 mmHg 95%
07:00 +20°C° 0 mm 2 mps 748 mmHg 90%
08:00 +21°C° 0 mm 2 mps 748 mmHg 84%
09:00 +23°C° 0 mm 2 mps 748 mmHg 78%
10:00 +24°C° 0.3 mm 3 mps 749 mmHg 75%
11:00 +25°C° 0.3 mm 3 mps 749 mmHg 72%
12:00 +25°C° 0.3 mm 3 mps 749 mmHg 69%
13:00 +26°C° 0.3 mm 3 mps 749 mmHg 63%
14:00 +27°C° 0.3 mm 3 mps 749 mmHg 57%
15:00 +27°C° 0.3 mm 3 mps 749 mmHg 51%
16:00 +26°C° 0 mm 3 mps 749 mmHg 54%
17:00 +25°C° 0 mm 2 mps 749 mmHg 57%
18:00 +24°C° 0 mm 2 mps 750 mmHg 60%
19:00 +23°C° 0 mm 2 mps 750 mmHg 64%
20:00 +22°C° 0 mm 1 mps 750 mmHg 67%
21:00 +21°C° 0 mm 1 mps 751 mmHg 70%
22:00 +20°C° 0 mm 1 mps 751 mmHg 71%
23:00 +20°C° 0 mm 1 mps 751 mmHg 72%

5 August, Thursday

Time Temperature Precipitation Wind Pressure Humidity
00:00 +18°C° 0 mm 2 mps 751 mmHg 74%
01:00 +17°C° 0 mm 2 mps 752 mmHg 75%
02:00 +17°C° 0 mm 2 mps 752 mmHg 76%
03:00 +16°C° 0 mm 2 mps 752 mmHg 77%
04:00 +16°C° 0 mm 2 mps 752 mmHg 76%
05:00 +17°C° 0 mm 2 mps 752 mmHg 75%
06:00 +17°C° 0 mm 2 mps 753 mmHg 74%
07:00 +19°C° 0 mm 2 mps 753 mmHg 66%
08:00 +21°C° 0 mm 3 mps 753 mmHg 58%
09:00 +24°C° 0 mm 3 mps 753 mmHg 51%
10:00 +25°C° 0 mm 3 mps 753 mmHg 46%
11:00 +26°C° 0 mm 3 mps 753 mmHg 41%
12:00 +26°C° 0 mm 4 mps 753 mmHg 36%
13:00 +26°C° 0 mm 4 mps 753 mmHg 35%
14:00 +27°C° 0 mm 4 mps 754 mmHg 34%
15:00 +27°C° 0 mm 4 mps 754 mmHg 33%
16:00 +26°C° 0 mm 3 mps 754 mmHg 39%
17:00 +25°C° 0 mm 2 mps 754 mmHg 44%
18:00 +24°C° 0 mm 2 mps 754 mmHg 49%
19:00 +22°C° 0 mm 1 mps 754 mmHg 52%
20:00 +20°C° 0 mm 1 mps 754 mmHg 55%
21:00 +18°C° 0 mm 1 mps 754 mmHg 59%
22:00 +16°C° 0 mm 1 mps 755 mmHg 60%
23:00 +16°C° 0 mm 1 mps 755 mmHg 62%

6 August, Friday

Time Temperature Precipitation Wind Pressure Humidity
00:00 +15°C° 0 mm 1 mps 755 mmHg 64%
01:00 +15°C° 0 mm 1 mps 755 mmHg 64%
02:00 +15°C° 0 mm 1 mps 755 mmHg 64%
03:00 +14°C° 0 mm 1 mps 755 mmHg 65%
04:00 +15°C° 0 mm 1 mps 755 mmHg 64%
05:00 +16°C° 0 mm 1 mps 755 mmHg 63%
06:00 +18°C° 0 mm 1 mps 756 mmHg 62%
07:00 +19°C° 0 mm 1 mps 756 mmHg 57%
08:00 +20°C° 0 mm 1 mps 756 mmHg 53%
09:00 +20°C° 0 mm 2 mps 756 mmHg 49%
10:00 +23°C° 0 mm 2 mps 756 mmHg 45%
11:00 +24°C° 0 mm 2 mps 756 mmHg 41%
12:00 +25°C° 0 mm 1 mps 756 mmHg 37%
13:00 +24°C° 0 mm 2 mps 756 mmHg 41%
14:00 +24°C° 0 mm 2 mps 756 mmHg 45%
15:00 +22°C° 0 mm 3 mps 756 mmHg 48%
16:00 +21°C° 0 mm 2 mps 756 mmHg 52%
17:00 +20°C° 0 mm 2 mps 756 mmHg 56%
18:00 +19°C° 0 mm 2 mps 757 mmHg 59%
19:00 +18°C° 0 mm 2 mps 757 mmHg 61%
20:00 +18°C° 0 mm 2 mps 757 mmHg 62%
21:00 +17°C° 0 mm 2 mps 757 mmHg 63%
22:00 +17°C° 0 mm 2 mps 757 mmHg 63%
23:00 +16°C° 0 mm 2 mps 757 mmHg 62%
Show more

We Need Your Consent

Meteoprog and our Service Providers may store and access personal data such as cookies, device identifiers or other similar technologies on your device and process such data to personalise content and ads, as well as provide social media features and to analyse the traffic.

  • Store and/or access information on your device

    Cookies, device identifiers or other information can be stored or accessed on your device for the purposes indicated above.

  • Personalised ads and content, ad and content measurement, audience insights, and products development

    Ads and content can be personalised based on a profile. More data can be added to better personalise ads and content. Ad and content performance can be measured. Insights about the audience who saw the ads and content can be derived. Such data can be used to develop or improve user’s experience, systems and software.

By clicking ‘I Agree’ you will allow the use of indicated cookies, device identifiers, web beacons or other similar technologies. Your settings can be changed in the browser on your device.

For certain purposes, legitimate interests may be relied on, rather than consent. You can read more about this in our Privacy and Cookie Policy.